Vertical_Velocity
20 3 -15 -15 -10 -19 -6 3 7 0 -3 -4 -5 -2 5 3 -1 -1 0 1 -1 -1 -0 -2 -0 -1 -3 -2 -1 -1 -1 -2 -1 -0 -0 -1 -2 -1 -2 0 -0 0 2
4 3 -18 3 -12 32 74 10 6 -1 16 4 -2 -4 -4 -1 -4 -3 1 1 -1 -1 -1 -0 0 -2 -1 -1 0 1 0 0 1 1 -1 1 0 1 -1 -1 -1 -2 0
-2 3 5 5 -7 -4 13 76 -18 -9 -3 -6 -2 -3 -5 -6 -5 -2 -4 1 1 2 2 1 3 0 2 -1 -1 0 -1 -0 -1 -2 -1 -2 1 -1 1 1 -0 1 -1
-1 -2 7 1 -15 -2 -5 8 30 9 5 -9 5 5 8 -1 3 3 0 0 1 -0 1 4 -0 1 -3 -8 10 1 -2 0 0 0 -4 -2 -2 0 0 -2 -2 -3 -1
4 4 -1 -9 16 9 6 17 12 30 34 1 -6 3 3 3 -1 -4 -2 3 2 2 5 3 0 -3 -1 7 2 2 8 15 2 1 -1 -2 -3 0 2 1 -2 1 0
2 4 -0 1 0 2 3 -4 3 31 21 98 69 -0 -14 19 8 12 1 14 4 7 12 15 8 3 13 11 0 -1 -9 -12 9 -2 1 -1 -2 -2 -0 -0 1 -1 1
1 6 1 3 -4 6 2 3 -8 0 1 11 22 18 48 114 31 10 3 15 10 33 15 6 2 15 40 -8 -8 -8 1 -4 -1 -1 -1 -9 -6 -3 -7 2 7 5 2
3 2 2 -4 0 2 -2 7 9 2 -6 45 28 16 9 15 22 1 35 2 16 19 23 14 19 3 3 -2 0 -2 -1 -0 1 0 -0 -1 -3 -3 -4 4 -3 -3 -9
2 2 -1 2 -0 -2 -2 2 4 9 36 23 12 11 1 0 10 -8 4 3 4 7 15 1 16 5 -1 0 3 3 1 -2 -2 -2 -0 -3 -1 -1 -2 -1 4 -3 18
8 3 1 -0 -9 2 -3 4 -3 -5 -4 -3 1 3 1 -1 6 -3 -1 3 4 -12 1 3 5 0 -6 -1 2 -0 -0 -6 1 -2 -0 1 -3 -1 -3 -1 1 1 9
-6 11 3 -3 3 -3 5 2 11 12 0 -7 -1 7 11 -1 -5 -4 -5 -2 -11 -5 -3 -3 -2 -7 1 0 -3 -1 -0 -3 -2 0 -4 -2 -3 -4 8 5 2 -0 -5
4 5 3 0 -1 2 2 -3 -5 -3 1 -3 4 3 4 -8 4 2 -7 -8 1 2 -5 1 -1 2 4 -0 -0 1 -1 3 1 2 -2 -2 -3 0 1 -1 -0 0 2
-5 7 8 8 6 5 3 -5 1 -4 7 4 4 2 5 6 5 9 4 1 -1 -3 -2 1 2 -3 -1 -1 -3 -2 1 -1 -6 -2 -5 -2 -3 -2 -7 -3 -1 -0 0
4 -4 -6 6 3 1 0 -4 -1 1 0 1 3 3 -3 1 1 2 0 3 -1 -1 -1 -1 0 -3 -3 -2 0 -4 -5 -4 -2 -0 -0 -4 -1 -2 1 1 2 2 2
-8 1 6 2 3 -3 -5 -2 0 -6 -5 -5 -7 -6 -2 1 0 0 1 2 2 1 -2 3 -1 -0 -3 -1 -1 1 -0 2 -4 -2 -1 -1 -4 2 -3 2 -3 -1 1
-8 8 -4 -1 -1 2 0 2 -1 -2 -9 -7 -3 -6 -4 -2 -0 4 -2 3 2 -2 1 -3 -2 -3 -2 -2 2 -3 -4 -4 -1 -1 0 -4 1 -6 -2 2 2 3 -0
-2 -4 -1 -7 2 -9 -2 2 5 6 4 7 3 3 2 -3 -2 -5 -1 -4 -5 -3 -3 3 -1 0 1 -0 1 -1 4 -4 -1 -3 -2 -2 -3 -1 -2 -4 -3 -5 -1
-3 -2 -7 -1 -7 -5 0 2 2 -2 -3 -3 -4 -1 -0 2 3 3 4 -1 -5 0 -1 -4 -10 -3 -7 1 3 -2 -0 -5 2 -1 -3 -2 -2 -5 -3 -1 -0 -1 0
-7 -4 -2 -2 -3 -4 -1 -0 0 1 1 2 -0 -2 1 0 -3 -6 -3 -6 -4 -2 -3 -1 3 6 4 -0 -5 2 6 3 -3 -2 2 -2 1 -3 -3 -4 -2 -1 -1
3 2 1 -4 2 -0 -0 0 -2 -1 -0 3 3 3 1 1 4 2 9 8 2 8 5 3 2 4 -2 3 3 -5 2 -4 -0 -1 -1 -2 -8 -6 -2 -2 2 -1 -0
-4 -9 -8 -2 -4 -1 -0 -1 1 3 0 -3 -5 -5 -4 -4 -3 2 -4 0 -2 -1 -3 -2 4 -7 4 1 1 -1 1 -1 -3 -6 -6 -2 -3 -3 -1 -1 -1 -2 -2
-4 -7 5 -9 3 -1 1 -3 0 3 1 -4 -3 -1 2 -0 -2 1 -1 -0 -0 2 -2 -0 0 -1 0 -1 -1 0 4 -4 -4 -5 -3 -2 -2 -2 -2 -0 -1 -0 -1
-9 -2 -2 -1 -0 1 -0 2 -11 -2 7 1 -2 -1 1 -0 -2 2 3 -0 5 1 2 -2 -3 1 1 -3 3 -0 -4 -2 -2 -7 -3 -2 -2 0 -3 -4 -1 -3 -1
-1 -2 -5 -3 -1 -1 -2 -1 0 -0 4 6 2 -2 -3 1 1 1 1 4 1 1 -1 1 -1 -3 -1 1 -0 -1 -3 -3 -3 1 -3 -4 -3 -2 -3 -1 -3 -2 -1
-1 -2 0 -2 -2 -2 -1 -3 -2 -2 -2 -3 -3 -2 1 2 3 1 2 1 -2 -2 -2 -1 1 1 1 -2 -2 -2 -3 -3 -4 3 -4 -5 -1 -3 -2 -2 -1 -2 -2
0 3 4 3 1 0 1 3 3 3 2 0 -1 -1 1 1 -0 -0 2 1 -1 0 -2 -2 -1 -0 0 -2 -3 -1 -2 -2 -3 3 -5 -4 -1 -1 -1 -2 -1 -2 -2
Height
5674 5684 5695 5705 5721 5729 5744 5758 5765 5773 5777 5782 5790 5796 5802 5806 5810 5815 5819 5822 5826 5830 5833 5836 5838 5840 5841 5843 5845 5846 5847 5848 5849 5850 5850 5851 5851 5851 5850 5849 5849 5848 5847
5674 5684 5695 5704 5714 5715 5726 5744 5751 5763 5773 5780 5786 5791 5794 5800 5803 5807 5812 5818 5821 5825 5827 5830 5832 5835 5836 5837 5839 5840 5841 5842 5842 5844 5844 5844 5844 5844 5842 5842 5842 5841 5839
5670 5682 5692 5702 5711 5718 5724 5734 5745 5757 5768 5776 5780 5783 5786 5790 5794 5799 5805 5810 5814 5817 5819 5822 5825 5828 5830 5832 5833 5834 5834 5835 5835 5835 5836 5836 5837 5836 5834 5833 5832 5831 5831
5667 5680 5688 5701 5709 5712 5714 5725 5732 5748 5762 5766 5767 5773 5779 5785 5789 5792 5796 5802 5807 5809 5812 5815 5821 5822 5824 5826 5827 5829 5829 5829 5829 5829 5829 5829 5829 5828 5826 5824 5823 5822 5823
5664 5677 5687 5698 5705 5710 5714 5724 5733 5728 5753 5757 5758 5763 5768 5772 5778 5783 5789 5796 5799 5802 5804 5807 5812 5816 5817 5819 5821 5822 5824 5822 5822 5823 5822 5821 5821 5819 5818 5817 5815 5815 5814
5662 5675 5686 5695 5703 5708 5715 5721 5730 5735 5742 5745 5735 5754 5760 5766 5770 5774 5780 5785 5789 5793 5798 5801 5805 5807 5810 5812 5815 5815 5815 5814 5814 5814 5815 5815 5813 5812 5810 5809 5808 5806 5806
5662 5673 5683 5691 5699 5706 5711 5717 5726 5731 5734 5735 5741 5740 5744 5754 5764 5765 5772 5778 5782 5788 5792 5794 5797 5799 5801 5804 5806 5807 5809 5809 5809 5809 5807 5806 5806 5805 5803 5802 5801 5799 5798
5662 5673 5680 5686 5694 5702 5706 5713 5722 5726 5722 5726 5732 5735 5740 5748 5751 5758 5764 5773 5776 5780 5782 5783 5785 5790 5792 5795 5798 5800 5802 5802 5801 5801 5800 5799 5797 5796 5797 5796 5793 5791 5788
5661 5670 5677 5682 5690 5697 5700 5707 5713 5713 5716 5726 5727 5732 5739 5745 5748 5755 5759 5766 5768 5770 5772 5776 5777 5783 5786 5788 5790 5792 5795 5795 5793 5793 5791 5790 5790 5789 5787 5787 5784 5782 5781
5661 5670 5677 5680 5686 5693 5698 5704 5707 5709 5714 5721 5725 5731 5734 5740 5744 5746 5752 5758 5760 5765 5769 5772 5775 5777 5779 5781 5781 5783 5784 5782 5782 5783 5782 5782 5781 5779 5778 5776 5775 5773 5771
5657 5664 5671 5678 5683 5689 5694 5698 5703 5706 5711 5718 5724 5727 5729 5732 5736 5741 5745 5750 5755 5760 5762 5765 5768 5768 5770 5771 5772 5772 5773 5771 5772 5772 5770 5770 5769 5767 5767 5764 5763 5761 5760
5656 5664 5669 5675 5680 5685 5690 5694 5699 5703 5707 5714 5719 5722 5725 5727 5730 5735 5739 5744 5749 5752 5754 5756 5758 5759 5761 5762 5763 5765 5764 5762 5761 5760 5759 5758 5758 5756 5756 5755 5754 5750 5748
5656 5659 5667 5672 5676 5680 5685 5691 5696 5701 5704 5707 5713 5717 5720 5723 5726 5729 5733 5738 5741 5743 5745 5747 5749 5751 5752 5751 5752 5753 5752 5752 5751 5749 5748 5747 5747 5747 5745 5744 5741 5739 5736
5650 5657 5663 5668 5673 5677 5680 5685 5691 5696 5699 5703 5706 5710 5714 5719 5720 5723 5726 5730 5732 5736 5739 5742 5742 5742 5742 5743 5742 5742 5741 5740 5740 5739 5738 5736 5734 5733 5732 5731 5730 5728 5726
5651 5655 5660 5663 5667 5671 5676 5680 5684 5689 5693 5698 5700 5703 5707 5710 5713 5717 5719 5722 5725 5727 5729 5730 5732 5732 5732 5732 5732 5732 5731 5731 5730 5728 5727 5726 5725 5723 5724 5722 5720 5718 5716
5647 5652 5657 5661 5665 5669 5674 5677 5679 5680 5686 5691 5694 5695 5699 5702 5705 5706 5709 5711 5714 5716 5718 5720 5720 5722 5723 5723 5723 5722 5721 5719 5719 5719 5717 5718 5717 5716 5713 5711 5709 5706 5703
5644 5647 5650 5655 5661 5665 5667 5669 5674 5678 5680 5683 5685 5688 5691 5694 5696 5698 5700 5702 5704 5706 5709 5709 5710 5711 5712 5712 5712 5711 5711 5711 5711 5709 5710 5710 5707 5705 5701 5698 5695 5692 5689
5639 5642 5647 5649 5653 5658 5662 5665 5668 5670 5674 5677 5680 5682 5684 5685 5687 5688 5690 5692 5695 5697 5700 5701 5702 5703 5703 5702 5702 5703 5702 5702 5700 5700 5699 5697 5696 5692 5689 5686 5682 5678 5674
5635 5637 5640 5642 5646 5649 5652 5655 5658 5661 5662 5664 5666 5669 5673 5676 5679 5681 5684 5685 5686 5688 5688 5690 5691 5691 5692 5691 5692 5691 5691 5691 5691 5690 5688 5686 5684 5681 5677 5674 5670 5665 5661
5630 5631 5632 5636 5638 5641 5644 5646 5648 5651 5653 5656 5658 5660 5662 5664 5665 5668 5670 5673 5675 5674 5675 5675 5679 5681 5682 5680 5680 5681 5682 5681 5680 5680 5678 5675 5671 5669 5665 5662 5659 5655 5651
5625 5626 5627 5629 5632 5635 5636 5638 5641 5644 5646 5648 5650 5653 5655 5657 5658 5660 5663 5664 5666 5666 5667 5669 5671 5672 5671 5672 5671 5672 5672 5671 5670 5668 5666 5664 5660 5657 5654 5650 5648 5644 5640
5621 5623 5624 5625 5625 5626 5627 5629 5631 5633 5636 5639 5641 5643 5647 5649 5651 5652 5653 5655 5655 5658 5659 5661 5661 5661 5662 5661 5662 5663 5661 5660 5658 5657 5654 5651 5648 5645 5642 5640 5636 5632 5629
5616 5617 5618 5619 5619 5620 5620 5621 5623 5625 5628 5630 5633 5635 5637 5639 5639 5641 5643 5645 5646 5648 5649 5650 5650 5650 5650 5651 5652 5651 5650 5649 5647 5644 5641 5639 5636 5633 5631 5628 5626 5622 5618
5607 5608 5609 5610 5611 5613 5614 5615 5617 5618 5619 5621 5623 5625 5627 5629 5630 5631 5633 5634 5636 5637 5638 5638 5638 5639 5641 5641 5640 5639 5638 5636 5634 5631 5628 5626 5624 5622 5620 5618 5615 5612 5608
5600 5600 5601 5602 5602 5603 5605 5606 5607 5608 5609 5610 5612 5614 5616 5617 5618 5620 5622 5623 5624 5625 5626 5627 5628 5629 5629 5629 5628 5626 5625 5623 5621 5619 5615 5614 5613 5611 5609 5607 5605 5601 5597
5592 5592 5591 5592 5592 5593 5595 5596 5597 5597 5598 5599 5601 5602 5604 5606 5607 5609 5610 5612 5612 5613 5614 5616 5617 5617 5616 5615 5614 5614 5612 5611 5609 5607 5604 5603 5601 5599 5597 5596 5593 5590 5587